To NAV CANADA Home Page Login to a new session Search on AWWS site Feedback and Comments Disclaimer Vers la page française équivalente Tips FAQ What's new on the site To the Forecasts and Observations / NOTAM section To "File a Flight Plan" website Publications and other links Update of the User's profile FIC Telephone Numbers My Weather Data Folder Route Weather Data Regional Weather Data Local Weather Data To the Forecasts and Observations / NOTAM section
Request Generated 06/26/2017 at 22:32:32 UTC . Weather information available at that time is displayed.

METAR/TAF

SANIKILUAQ/NU    

METAR CYSK 262200Z 28017KT 15SM FEW040 BKN220 04/01 A2978 RMK SC2CS4
5.1/-0.4/M/M LAST MANNED OB/NEXT 271200UTC SLP089=
METAR CYSK 262100Z 28017G24KT 15SM FEW040 BKN220 04/01 A2979 RMK
SC2CS4 SLP090=
METAR CYSK 262000Z 28018G24KT 15SM FEW040 BKN220 04/01 A2978 RMK
SC2CS4 SLP088=

CYSK - No TAF is issued for this station

Your time UTC time
Weather data provided by Environment Canada and NAV CANADA